This is the latest recevied weather packets stored in our database for station/object KC8ZBC. If no packets are shown the sender has not sent any weather packets the latest 10 day(s).
| Time | Temp. | Humidity | Pressure | Rain* | Wind** | Luminosity | Snow |
|---|---|---|---|---|---|---|---|
| 1777983476 | 10.56° C | 82% | 979.3 hPa | 0 mm | - | 51 W/m² | - |
| 1777983174 | 10.56° C | 82% | 979 hPa | 0 mm | - | 53 W/m² | - |
| 1777982870 | 10.56° C | 83% | 979.1 hPa | 0 mm | - | 78 W/m² | - |
| 1777982566 | 11.11° C | 82% | 979.3 hPa | 0 mm | - | 44 W/m² | - |
| 1777982265 | 11.67° C | 83% | 979.1 hPa | 0 mm | - | 45 W/m² | - |
| 1777981963 | 12.22° C | 82% | 979 hPa | 0 mm | - | 45 W/m² | - |
| 1777981660 | 12.78° C | 82% | 978.8 hPa | 0 mm | - | 50 W/m² | - |
| 1777981356 | 12.78° C | 83% | 978.9 hPa | 0 mm | - | 44 W/m² | - |
| 1777981053 | 12.78° C | 82% | 978.6 hPa | 0 mm | - | 23 W/m² | - |
| 1777980749 | 12.78° C | 81% | 978.6 hPa | 0 mm | - | 11 W/m² | - |
| 1777980445 | 13.33° C | 81% | 978.2 hPa | 0 mm | - | 16 W/m² | - |
| 1777980143 | 13.33° C | 81% | 978 hPa | 0 mm | - | 18 W/m² | - |
| 1777979843 | 13.33° C | 81% | 977.9 hPa | 0 mm | - | 24 W/m² | - |
| 1777979539 | 12.78° C | 81% | 978 hPa | 0 mm | - | 21 W/m² | - |
| 1777979235 | 12.78° C | 83% | 977.8 hPa | 0 mm | - | 22 W/m² | - |
| 1777978933 | 12.78° C | 83% | 977.6 hPa | 0 mm | - | 16 W/m² | - |
| 1777978629 | 12.78° C | 84% | 977.4 hPa | 0 mm | - | 11 W/m² | - |
| 1777978325 | 12.78° C | 84% | 977.5 hPa | 0 mm | - | 11 W/m² | - |
| 1777978022 | 12.78° C | 85% | 977.5 hPa | 0 mm | - | 6 W/m² | - |
| 1777977719 | 12.78° C | 86% | 977.6 hPa | 0 mm | - | 2 W/m² | - |
| 1777977415 | 12.78° C | 86% | 977.5 hPa | 0 mm | - | 1 W/m² | - |
| 1777977113 | 12.78° C | 87% | 977.5 hPa | 0 mm | - | 0 W/m² | - |
| 1777976810 | 12.78° C | 86% | 977.2 hPa | 0 mm | - | 0 W/m² | - |
| 1777976508 | 12.78° C | 86% | 977 hPa | 0 mm | - | 0 W/m² | - |
| 1777976207 | 12.78° C | 87% | 976.7 hPa | 0 mm | - | 0 W/m² | - |
* Rain latest hour (hover to see other rain measurements)
** Current wind speed in m/s (hover to see current wind gust speed)